Location: Wyoming Infrared Observatory
(41.0971°N, 105.9765°W)
Time: 21:57:59
(UTC-06:00)

Amateur Radio Satellites - All Passes

Search period start: 17 October 2017 21:27
Search period end: 18 October 2017 21:27
Location: Wyoming Infrared Observatory, 41.0971°N, 105.9765°W

Satellite Date Start Highest point End Downlink Frequencies (MHz)
Time Altitude Azimuth
AAUSAT CUBESAT 2 17 Oct 21:28:40 21:30:50 14° 269° (W) 21:33:00 437.432
ZACube-1 17 Oct 21:38:40 21:42:01 20° 267° (W) 21:45:25 437.345
EO-88 17 Oct 21:42:30 21:45:47 32° 72° (ENE) 21:49:04 145.990 - 145.960
BEESAT 2 17 Oct 21:44:13 21:46:51 16° 43° (NE) 21:49:27 435.950
Max Valier Satellite 17 Oct 21:45:01 21:48:37 49° 74° (ENE) 21:52:15 145.860
FO-29 17 Oct 21:47:08 21:53:53 63° 101° (ESE) 22:01:21 435.910
DELFI C3 17 Oct 21:47:19 21:51:12 76° 76° (ENE) 21:55:07 145.870
O/OREOS (USA 219) 17 Oct 21:57:10 22:01:42 72° 293° (WNW) 22:06:18 437.305
BEESAT 3 17 Oct 22:07:21 22:11:20 77° 57° (ENE) 22:15:13 437.485
ESTCUBE 1 17 Oct 22:20:47 22:22:19 12° 61° (ENE) 22:23:51 437.505/2401.250
Oscar 11 17 Oct 22:23:58 22:24:33 10° 271° (W) 22:25:08 .
STRAND 1 17 Oct 22:26:24 22:28:08 12° 302° (WNW) 22:29:52 437.568
UNISAT 6 17 Oct 22:37:56 22:42:27 48° 99° (E) 22:46:50 437.425
LO-87 17 Oct 22:42:12 22:44:58 21° 69° (ENE) 22:47:46 145.935 - 145.965
TIGRISAT 17 Oct 22:53:32 22:58:10 66° 101° (ESE) 23:02:39 435.000
YUBILEINY 17 Oct 23:01:29 23:08:35 29° 278° (W) 23:15:42 435.215
AO-85 17 Oct 23:01:38 23:06:09 65° 56° (NE) 23:11:02 145.980
PRISM 17 Oct 23:02:07 23:05:55 35° 98° (E) 23:09:43 437.425
EO-88 17 Oct 23:17:16 23:19:31 15° 267° (W) 23:21:45 145.990 - 145.960
BEESAT 2 17 Oct 23:20:57 23:24:56 57° 241° (WSW) 23:28:49 435.950
Max Valier Satellite 17 Oct 23:21:48 23:22:42 11° 269° (W) 23:23:36 145.860
FO-29 17 Oct 23:33:08 23:38:31 27° 296° (WNW) 23:44:22 435.910
SPROUT 17 Oct 23:35:39 23:38:24 17° 65° (ENE) 23:41:11 437.525
ESTCUBE 1 17 Oct 23:54:00 23:58:29 75° 258° (WSW) 00:03:00 437.505/2401.250
AIST 2D 17 Oct 23:57:02 00:00:17 36° 98° (E) 00:03:30 435.315
VELOX 1 17 Oct 23:57:40 00:00:57 21° 66° (ENE) 00:04:15 145.980
EO-79 18 Oct 00:11:20 00:14:32 20° 94° (E) 00:17:43 145.935-145.965
POLYITAN 1 18 Oct 00:15:06 00:18:28 22° 94° (E) 00:21:49 437.675
LO-87 18 Oct 00:15:24 00:18:16 22° 265° (W) 00:21:09 145.935 - 145.965
UNISAT 6 18 Oct 00:15:40 00:18:44 18° 296° (WNW) 00:21:45 437.425
TIGRISAT 18 Oct 00:31:57 00:34:14 14° 298° (WNW) 00:36:30 435.000
QB50P2 18 Oct 00:34:38 00:38:41 41° 98° (E) 00:42:42 145.880/145.840
PRISM 18 Oct 00:38:01 00:40:55 19° 294° (WNW) 00:43:50 437.425
NANOSAT C BR1 18 Oct 00:40:55 00:44:54 38° 98° (E) 00:48:51 145.865
RS-15 18 Oct 00:41:11 00:52:23 44° 108° (ESE) 01:03:37 29.354- 29.394
AO-85 18 Oct 00:43:28 00:46:10 15° 250° (WSW) 00:48:58 145.980
DUCHIFAT 1 18 Oct 00:53:14 00:57:20 46° 99° (E) 01:01:23 145.980
SPROUT 18 Oct 01:09:52 01:13:56 43° 261° (W) 01:18:03 437.525
DX 1 18 Oct 01:12:20 01:16:13 33° 69° (ENE) 01:20:05 434.975-435.025
BUGSAT 1 18 Oct 01:13:03 01:16:08 19° 93° (E) 01:19:12 437.445
AIST 2D 18 Oct 01:31:32 01:33:07 13° 294° (WNW) 01:34:41 435.315
VELOX 1 18 Oct 01:33:08 01:37:09 35° 262° (W) 01:41:12 145.980
50 SAT 18 Oct 01:38:07 01:41:21 81° 78° (ENE) 01:44:38 437.505
UKube-1 18 Oct 01:42:05 01:46:09 43° 71° (ENE) 01:50:14 .
EO-79 18 Oct 01:46:30 01:50:21 33° 290° (WNW) 01:54:11 145.935-145.965
POLYITAN 1 18 Oct 01:50:29 01:54:15 31° 290° (WNW) 01:57:59 437.675
BEESAT 18 Oct 02:02:52 02:04:10 11° 59° (ENE) 02:05:28 436.000
QB50P2 18 Oct 02:11:16 02:14:08 18° 295° (WNW) 02:17:00 145.880/145.840
NANOSAT C BR1 18 Oct 02:17:21 02:20:18 19° 294° (WNW) 02:23:15 145.865
Oscar 19 18 Oct 02:21:04 02:26:04 51° 100° (E) 02:31:01 437.125/150
M-CUBED/EXP-1 PRIME 18 Oct 02:27:25 02:30:43 38° 105° (ESE) 02:34:14 437.505
DUCHIFAT 1 18 Oct 02:30:01 02:32:36 16° 295° (WNW) 02:35:09 145.980
Gurwin Techsat 1B 18 Oct 02:30:19 02:35:23 43° 98° (E) 02:40:26 435.225
BUGSAT 1 18 Oct 02:47:43 02:51:34 35° 290° (WNW) 02:55:23 437.445
DX 1 18 Oct 02:49:06 02:52:25 22° 265° (W) 02:55:47 434.975-435.025
RS-15 18 Oct 02:52:22 03:04:31 61° 310° (NW) 03:16:41 29.354- 29.394
MOZHAYETS 4 18 Oct 03:15:52 03:20:26 61° 74° (ENE) 03:25:01
AO-7 18 Oct 03:16:23 03:22:14 21° 92° (E) 03:28:02 .
ITUPSAT 1 18 Oct 03:19:04 03:23:47 61° 73° (ENE) 03:28:33 437.325
UKube-1 18 Oct 03:19:43 03:22:22 16° 267° (W) 03:25:04 .
CUBESAT XI-V 18 Oct 03:21:50 03:24:39 16° 64° (ENE) 03:27:27 437.345
BEESAT 18 Oct 03:36:23 03:41:11 88° 250° (WSW) 03:46:01 436.000
Oscar 19 18 Oct 04:01:19 04:04:59 20° 297° (WNW) 04:08:40 437.125/150
M-CUBED/EXP-1 PRIME 18 Oct 04:02:59 04:04:55 14° 298° (WNW) 04:06:53 437.505
Gurwin Techsat 1B 18 Oct 04:10:48 04:15:03 25° 295° (WNW) 04:19:18 435.225
NO-84 18 Oct 04:18:35 04:22:49 59° 134° (SE) 04:27:00 435.350 FM
ITAMSAT 1 18 Oct 04:26:54 04:31:59 48° 100° (E) 04:37:02 435.822/435.867
MOZHAYETS 4 18 Oct 04:55:44 04:57:58 13° 270° (W) 05:00:12
CUBESAT XI-V 18 Oct 04:57:01 05:01:34 54° 260° (W) 05:06:06 437.345
ITUPSAT 1 18 Oct 04:59:26 05:01:59 14° 269° (W) 05:04:34 437.325
KKS-1 18 Oct 05:02:35 05:06:53 52° 72° (ENE) 05:11:13 437.445
AO-7 18 Oct 05:07:29 05:15:49 82° 290° (WNW) 05:24:08 .
RS-15 18 Oct 05:10:29 05:20:18 26° 340° (NNW) 05:29:59 29.354- 29.394
STARS 18 Oct 05:42:52 05:47:09 58° 73° (ENE) 05:51:29 437.465
NO-84 18 Oct 05:56:49 06:00:29 27° 331° (NNW) 06:04:03 435.350 FM
ITAMSAT 1 18 Oct 06:07:09 06:11:05 22° 297° (WNW) 06:15:01 435.822/435.867
LilacSat-2 18 Oct 06:11:22 06:13:31 15° 92° (E) 06:15:39 437.200
XW-2F 18 Oct 06:12:12 06:13:53 13° 91° (E) 06:15:33 145.980 - 146.000
KAITUO 1B 18 Oct 06:15:56 06:16:34 10° 90° (E) 06:17:13 145.475/437.950
DOVE 4 18 Oct 06:17:41 06:22:38 83° 101° (E) 06:27:49 437.250
CUTE-I 18 Oct 06:18:09 06:21:43 18° 92° (E) 06:25:17 437.470
XW-2D 18 Oct 06:21:37 06:24:17 19° 94° (E) 06:26:57 145.860 - 145.880
STRAND 1 18 Oct 06:23:31 06:26:45 17° 62° (ENE) 06:30:00 437.568
O/OREOS (USA 219) 18 Oct 06:28:39 06:32:19 23° 57° (ENE) 06:35:57 437.305
NUDT-PHONESAT 18 Oct 06:32:54 06:35:20 17° 93° (E) 06:37:45 437.300
XW-2B 18 Oct 06:34:35 06:37:44 25° 96° (E) 06:40:52 145.730 - 145.750
KKS-1 18 Oct 06:41:23 06:43:44 14° 268° (W) 06:46:07 437.445
XW-2C 18 Oct 06:57:17 07:00:57 50° 100° (E) 07:04:34 145.795 - 145.815
AO-7 18 Oct 07:01:56 07:07:23 20° 310° (NW) 07:12:49 .
STARS 18 Oct 07:21:54 07:23:50 13° 269° (W) 07:25:47 437.465
CUBEBUG 2 18 Oct 07:24:23 07:26:45 14° 89° (E) 07:29:05 437.445
RS-15 18 Oct 07:29:04 07:38:32 25° 16° (NNE) 07:47:41 29.354- 29.394
NO-84 18 Oct 07:37:24 07:39:03 12° 351° (N) 07:40:40 435.350 FM
HO-68 18 Oct 07:39:58 07:46:39 40° 98° (E) 07:53:19 435.675
LilacSat-2 18 Oct 07:44:28 07:47:55 35° 288° (WNW) 07:51:22 437.200
XW-2F 18 Oct 07:44:41 07:48:11 40° 287° (WNW) 07:51:41 145.980 - 146.000
KAITUO 1B 18 Oct 07:47:15 07:50:49 48° 286° (WNW) 07:54:22 145.475/437.950
SO-50 18 Oct 07:53:35 07:58:02 76° 122° (ESE) 08:02:33 436.795
XW-2D 18 Oct 07:55:15 07:58:28 28° 289° (WNW) 08:01:40 145.860 - 145.880
CUTE-I 18 Oct 07:56:51 08:02:08 59° 288° (WNW) 08:07:24 437.470
DOVE 4 18 Oct 07:57:36 07:59:42 13° 298° (WNW) 08:01:49 437.250
STRAND 1 18 Oct 08:00:20 08:05:24 63° 258° (WSW) 08:10:31 437.568
FO-29 18 Oct 08:01:52 08:05:47 22° 62° (ENE) 08:09:53 435.910
NUDT-PHONESAT 18 Oct 08:06:02 08:09:14 29° 289° (WNW) 08:12:25 437.300
PCSat 18 Oct 08:06:37 08:10:14 18° 105° (ESE) 08:13:53 145.827
UWE-3 18 Oct 08:06:53 08:10:24 22° 93° (E) 08:13:49 435.000/436.395/437.385
O/OREOS (USA 219) 18 Oct 08:07:35 08:11:50 38° 255° (WSW) 08:16:03 437.305
XW-2B 18 Oct 08:08:56 08:11:46 21° 292° (WNW) 08:14:35 145.730 - 145.750
YUBILEINY 18 Oct 08:14:38 08:17:38 12° 73° (ENE) 08:20:39 435.215
CUTE 1.7 + AOD 2 18 Oct 08:24:40 08:28:51 76° 285° (WNW) 08:33:02 437.475
Oscar 11 18 Oct 08:32:45 08:34:38 13° 90° (E) 08:36:29 .
XW-2C 18 Oct 08:33:26 08:34:40 11° 296° (WNW) 08:35:53 145.795 - 145.815
SEEDS 18 Oct 08:36:41 08:40:52 90° 128° (SE) 08:45:02 437.485
XW-2A 18 Oct 08:44:50 08:48:10 69° 101° (ESE) 08:51:29 145.665 - 145.685
CUBEBUG 2 18 Oct 08:59:08 09:03:45 58° 286° (WNW) 09:08:12 437.445
AO-73 18 Oct 09:05:15 09:09:27 43° 98° (E) 09:13:30 145.935
AAUSAT CUBESAT 2 18 Oct 09:08:11 09:12:20 89° 99° (E) 09:16:27 437.432
NO-84 18 Oct 09:16:01 09:17:55 13° 13° (NNE) 09:19:48 435.350 FM
ZACube-1 18 Oct 09:25:37 09:30:04 85° 105° (ESE) 09:34:21 437.345
HO-68 18 Oct 09:27:44 09:34:20 41° 296° (WNW) 09:40:55 435.675
UNISAT 6 18 Oct 09:36:07 09:40:28 42° 71° (ENE) 09:44:54 437.425
SO-50 18 Oct 09:36:14 09:39:01 16° 320° (NW) 09:41:50 436.795
RS-15 18 Oct 09:42:46 09:54:33 56° 47° (NE) 10:05:40 29.354- 29.394
UWE-3 18 Oct 09:42:48 09:46:56 34° 290° (WNW) 09:50:54 435.000/436.395/437.385
FO-29 18 Oct 09:45:34 09:50:31 46° 261° (W) 09:55:47 435.910
PCSat 18 Oct 09:47:45 09:53:06 61° 302° (WNW) 09:58:30 145.827
PRISM 18 Oct 09:51:23 09:54:42 25° 68° (ENE) 09:58:02 437.425
TIGRISAT 18 Oct 09:51:25 09:55:56 55° 73° (ENE) 10:00:32 435.000
YUBILEINY 18 Oct 10:04:06 10:12:42 71° 94° (E) 10:21:22 435.215
Oscar 11 18 Oct 10:06:53 10:11:06 55° 286° (WNW) 10:15:17 .
nSIGHT-1 18 Oct 10:13:28 10:15:25 15° 131° (SE) 10:17:23 .
AIST 2D 18 Oct 10:32:10 10:34:06 14° 67° (ENE) 10:36:01 435.315
ISS 18 Oct 10:39:23 10:42:06 24° 134° (SE) 10:44:49 437.550
AO-73 18 Oct 10:42:25 10:45:17 17° 295° (WNW) 10:48:07 145.935
EO-88 18 Oct 10:44:13 10:47:40 41° 99° (E) 10:51:06 145.990 - 145.960
Max Valier Satellite 18 Oct 10:48:23 10:52:04 69° 101° (E) 10:55:42 145.860
NO-84 18 Oct 10:52:42 10:56:18 37° 34° (NE) 10:59:35 435.350 FM
DELFI C3 18 Oct 10:58:36 11:02:30 63° 285° (WNW) 11:06:25 145.870
EO-79 18 Oct 11:04:08 11:06:45 16° 65° (ENE) 11:09:23 145.935-145.965
POLYITAN 1 18 Oct 11:07:53 11:10:45 18° 65° (ENE) 11:13:38 437.675
UNISAT 6 18 Oct 11:13:59 11:17:20 20° 268° (W) 11:20:44 437.425
PRISM 18 Oct 11:26:32 11:29:53 25° 264° (W) 11:33:15 437.425
QB50P2 18 Oct 11:26:57 11:30:41 30° 70° (ENE) 11:34:27 145.880/145.840
TIGRISAT 18 Oct 11:30:20 11:32:57 15° 270° (W) 11:35:36 435.000
NANOSAT C BR1 18 Oct 11:32:45 11:36:23 28° 69° (ENE) 11:40:03 145.865
PCSat 18 Oct 11:35:32 11:37:39 12° 323° (NW) 11:39:45 145.827
LO-87 18 Oct 11:41:39 11:44:44 26° 96° (E) 11:47:48 145.935 - 145.965
DUCHIFAT 1 18 Oct 11:44:38 11:48:26 33° 70° (ENE) 11:52:16 145.980
ESTCUBE 1 18 Oct 11:47:01 11:50:33 23° 94° (E) 11:54:05 437.505/2401.250
nSIGHT-1 18 Oct 11:48:15 11:51:23 57° 327° (NNW) 11:54:33 .
RS-15 18 Oct 11:55:49 12:06:46 47° 251° (WSW) 12:17:11 29.354- 29.394
BEESAT 3 18 Oct 11:58:37 12:00:21 12° 109° (ESE) 12:02:04 437.485
BUGSAT 1 18 Oct 12:03:20 12:05:37 14° 64° (ENE) 12:07:54 437.445
YUBILEINY 18 Oct 12:03:28 12:10:18 25° 294° (WNW) 12:17:12 435.215
AIST 2D 18 Oct 12:03:46 12:06:58 33° 263° (W) 12:10:12 435.315
ISS 18 Oct 12:15:22 12:18:26 39° 331° (NNW) 12:21:32 437.550
EO-88 18 Oct 12:19:18 12:20:56 13° 295° (WNW) 12:22:34 145.990 - 145.960
NO-84 18 Oct 12:30:31 12:33:29 24° 233° (SW) 12:36:14 435.350 FM
EO-79 18 Oct 12:38:01 12:42:07 46° 261° (W) 12:46:15 145.935-145.965
POLYITAN 1 18 Oct 12:42:09 12:46:12 41° 261° (W) 12:50:17 437.675
SPROUT 18 Oct 12:55:28 12:59:16 30° 96° (E) 13:03:02 437.525
QB50P2 18 Oct 13:03:06 13:06:28 23° 265° (W) 13:09:53 145.880/145.840
NANOSAT C BR1 18 Oct 13:08:35 13:12:02 24° 265° (W) 13:15:33 145.865
BEESAT 2 18 Oct 13:12:07 13:15:19 23° 113° (ESE) 13:18:34 435.950
M-CUBED/EXP-1 PRIME 18 Oct 13:13:24 13:16:42 46° 69° (ENE) 13:19:53 437.505
LO-87 18 Oct 13:15:19 13:17:58 19° 292° (WNW) 13:20:36 145.935 - 145.965
AO-85 18 Oct 13:17:49 13:20:23 17° 111° (ESE) 13:23:00 145.980
DUCHIFAT 1 18 Oct 13:20:58 13:24:08 20° 266° (W) 13:27:21 145.980
VELOX 1 18 Oct 13:22:37 13:26:49 40° 99° (E) 13:30:59 145.980
ESTCUBE 1 18 Oct 13:23:23 13:27:25 33° 290° (WNW) 13:31:24 437.505/2401.250
nSIGHT-1 18 Oct 13:26:07 13:28:12 16° 346° (NNW) 13:30:17 .
BEESAT 3 18 Oct 13:33:27 13:37:23 58° 305° (NW) 13:41:22 437.485
BUGSAT 1 18 Oct 13:36:26 13:40:30 51° 260° (W) 13:44:38 437.445
Oscar 19 18 Oct 13:37:37 13:42:47 74° 73° (ENE) 13:47:56 437.125/150
Gurwin Techsat 1B 18 Oct 13:51:10 13:56:26 69° 74° (ENE) 14:01:44 435.225
ISS 18 Oct 13:53:41 13:55:36 15° 351° (N) 13:57:31 437.550
AO-7 18 Oct 14:15:13 14:22:12 32° 57° (ENE) 14:29:10 .
50 SAT 18 Oct 14:29:10 14:32:28 73° 101° (ESE) 14:35:45 437.505
SPROUT 18 Oct 14:31:34 14:35:00 24° 292° (WNW) 14:38:25 437.525
DX 1 18 Oct 14:35:52 14:40:13 62° 102° (ESE) 14:44:33 434.975-435.025
SO-50 18 Oct 14:46:23 14:47:57 11° 36° (NE) 14:49:30 436.795
BEESAT 2 18 Oct 14:49:17 14:52:54 32° 310° (NW) 14:56:34 435.950
AO-85 18 Oct 14:56:48 15:00:26 38° 309° (NW) 15:04:11 145.980
VELOX 1 18 Oct 14:59:48 15:02:57 19° 295° (WNW) 15:06:07 145.980
nSIGHT-1 18 Oct 15:03:49 15:05:29 13° 7° (N) 15:07:09 .
UKube-1 18 Oct 15:04:32 15:08:53 82° 102° (ESE) 15:13:12 .
MOZHAYETS 4 18 Oct 15:12:29 15:14:54 14° 91° (E) 15:17:17
Oscar 19 18 Oct 15:20:19 15:22:37 13° 270° (W) 15:24:55 437.125/150
ITUPSAT 1 18 Oct 15:20:57 15:23:46 15° 92° (E) 15:26:33 437.325
ISS 18 Oct 15:31:05 15:33:05 15° 11° (N) 15:35:06 437.550
Gurwin Techsat 1B 18 Oct 15:33:58 15:36:52 15° 270° (W) 15:39:46 435.225
BEESAT 18 Oct 15:37:10 15:40:58 23° 95° (E) 15:44:44 436.000
ITAMSAT 1 18 Oct 15:44:39 15:49:49 74° 74° (ENE) 15:55:02 435.822/435.867
AO-7 18 Oct 16:06:15 16:14:26 63° 256° (WSW) 16:22:41 .
DX 1 18 Oct 16:13:49 16:15:52 13° 298° (WNW) 16:17:54 434.975-435.025
SO-50 18 Oct 16:24:42 16:29:17 65° 55° (NE) 16:33:55 436.795
nSIGHT-1 18 Oct 16:39:37 16:42:32 31° 26° (NNE) 16:45:26 .
MOZHAYETS 4 18 Oct 16:47:54 16:52:23 56° 287° (WNW) 16:56:51
PCSat 18 Oct 16:53:18 16:57:01 18° 43° (NE) 17:00:44 145.827
CUBESAT XI-V 18 Oct 16:53:32 16:57:46 36° 97° (E) 17:02:00 437.345
ITUPSAT 1 18 Oct 16:57:13 17:01:55 56° 288° (WNW) 17:06:35 437.325
ISS 18 Oct 17:07:02 17:10:12 44° 30° (NNE) 17:13:21 437.550
BEESAT 18 Oct 17:14:25 17:18:49 37° 291° (WNW) 17:23:10 436.000
XW-2B 18 Oct 17:16:47 17:18:43 14° 65° (ENE) 17:20:38 145.730 - 145.750
DOVE 4 18 Oct 17:23:23 17:27:31 78° 76° (ENE) 17:31:50 437.250
ITAMSAT 1 18 Oct 17:27:29 17:29:49 13° 270° (W) 17:32:09 435.822/435.867
STARS 18 Oct 17:35:11 17:35:48 10° 90° (E) 17:36:25 437.465
XW-2C 18 Oct 17:38:32 17:41:39 24° 70° (ENE) 17:44:46 145.795 - 145.815
CUTE-I 18 Oct 17:39:34 17:44:05 29° 66° (ENE) 17:48:38 437.470
SO-50 18 Oct 18:06:44 18:09:14 14° 251° (WSW) 18:11:44 436.795
HO-68 18 Oct 18:08:59 18:15:00 30° 61° (ENE) 18:21:04 435.675
nSIGHT-1 18 Oct 18:15:52 18:18:49 33° 223° (SW) 18:21:44 .
CUBEBUG 2 18 Oct 18:22:47 18:24:50 13° 61° (ENE) 18:26:54 437.445
XW-2F 18 Oct 18:24:31 18:28:19 86° 77° (ENE) 18:32:07 145.980 - 146.000
LilacSat-2 18 Oct 18:25:20 18:29:10 80° 258° (WSW) 18:33:00 437.200
KAITUO 1B 18 Oct 18:26:19 18:30:03 70° 76° (ENE) 18:33:46 145.475/437.950
KKS-1 18 Oct 18:29:40 18:34:09 76° 284° (WNW) 18:38:37 437.445
CUBESAT XI-V 18 Oct 18:31:21 18:34:56 23° 293° (WNW) 18:38:29 437.345
XW-2D 18 Oct 18:35:19 18:39:05 61° 259° (W) 18:42:52 145.860 - 145.880
PCSat 18 Oct 18:35:37 18:41:04 79° 243° (WSW) 18:46:27 145.827
ISS 18 Oct 18:43:55 18:46:29 21° 227° (SW) 18:49:03 437.550
NUDT-PHONESAT 18 Oct 18:43:56 18:47:38 72° 259° (WSW) 18:51:22 437.300
XW-2B 18 Oct 18:48:52 18:52:30 43° 261° (W) 18:56:09 145.730 - 145.750
UWE-3 18 Oct 19:03:41 19:06:58 19° 65° (ENE) 19:10:17 435.000/436.395/437.385
STARS 18 Oct 19:08:10 19:12:36 72° 284° (WNW) 19:17:00 437.465
XW-2C 18 Oct 19:12:45 19:15:46 22° 265° (W) 19:18:47 145.795 - 145.815
XW-2A 18 Oct 19:16:02 19:18:42 21° 70° (ENE) 19:21:21 145.665 - 145.685
CUTE 1.7 + AOD 2 18 Oct 19:16:37 19:20:49 73° 76° (ENE) 19:25:03 437.475
CUTE-I 18 Oct 19:19:09 19:23:59 36° 263° (W) 19:28:52 437.470
SEEDS 18 Oct 19:27:43 19:31:50 58° 74° (ENE) 19:35:56 437.485
Oscar 11 18 Oct 19:28:49 19:29:45 11° 62° (ENE) 19:30:40 .
HO-68 18 Oct 19:55:23 20:02:21 55° 259° (W) 20:09:24 435.675
CUBEBUG 2 18 Oct 19:56:08 20:00:46 74° 259° (WSW) 20:05:32 437.445
AAUSAT CUBESAT 2 18 Oct 19:57:41 20:01:41 54° 74° (ENE) 20:05:42 437.432
AO-73 18 Oct 20:00:02 20:04:09 34° 70° (ENE) 20:08:17 145.935
STRAND 1 18 Oct 20:10:53 20:15:50 45° 99° (E) 20:20:45 437.568
YUBILEINY 18 Oct 20:14:37 20:22:30 35° 71° (ENE) 20:30:20 435.215
BEESAT 3 18 Oct 20:15:10 20:15:46 10° 38° (NE) 20:16:21 437.485
ZACube-1 18 Oct 20:20:24 20:24:55 64° 75° (ENE) 20:29:28 437.345
UWE-3 18 Oct 20:38:37 20:43:03 45° 262° (W) 20:47:33 435.000/436.395/437.385
O/OREOS (USA 219) 18 Oct 20:41:00 20:44:40 24° 102° (ESE) 20:48:22 437.305
XW-2A 18 Oct 20:48:44 20:51:18 20° 265° (W) 20:53:55 145.665 - 145.685
FO-29 18 Oct 20:52:59 20:58:39 26° 94° (E) 21:04:42 435.910
Oscar 11 18 Oct 21:00:54 21:05:14 76° 258° (WSW) 21:09:35 .
SEEDS 18 Oct 21:06:31 21:07:52 11° 270° (W) 21:09:11 437.485
EO-88 18 Oct 21:22:14 21:24:47 18° 68° (ENE) 21:27:22 145.990 - 145.960
